Flag for Japan Weather past 2 weeks in Sapporo, Japan

Now
63 °F

Overcast.


Feels Like: 63 °F
Forecast: 56 / 71 °F
Wind: 21 mph from South

Location: Sapporo

Current Time: May 30, 2015 at 4:24:01 AM

Latest Report: May 30, 2015 at 3:00 AM


Visibility: 6 mi

Pressure: 29.69 "Hg

Humidity: 80%

Dew point: 56 °F

Location of SapporoLocation

Historic Weather in Sapporo — Graph

°F

Sapporo temperature yesterday

Maximum temperature yesterday: 84 °F (at 4:00 PM)
Minimum temperature yesterday: 56 °F (at 4:00 AM)
Average temperature yesterday: 69 °F

Past Weeks' High & Low Weather Summary

 TemperatureHumidityPressure
High84 °F (May 29, 4:00 PM)90% (May 20, 11:00 PM)29.97 "Hg (May 20, 11:00 PM)
Low45 °F (May 18, 4:00 AM)23% (May 29, 4:00 PM)29.44 "Hg (May 20, 2:00 PM)
Average57 °F61%29.72 "Hg
* Reported May 15 3:00 AM — May 30 3:00 AM, Sapporo, Weather by CustomWeather, © 2015

Note: Actual official high and low records may vary slightly from our data, if they occured in-between our weather recording intervals... More about our weather records

Advertising

Sapporo weather history for previous 24 hours

 ConditionsComfort  
Time TempWeatherWind HumidityBarometerVisibility
3:00 AM
Sat, May 30
63 °FOvercast.21 mph80%29.69 "Hg6 mi
2:00 AM62 °FMild.13 mph81%29.70 "HgN/A
1:00 AM61 °FCool.12 mph79%29.72 "HgN/A
12:00 AM59 °FCool.8 mph75%29.72 "HgN/A
11:00 PM
Fri, May 29
63 °FMild.9 mph62%29.74 "HgN/A
10:00 PM68 °FMild.10 mph48%29.75 "HgN/A
9:00 PM70 °FPassing clouds.10 mph43%29.75 "Hg9 mi
8:00 PM72 °FMild.9 mph41%29.75 "HgN/A
7:00 PM74 °FMild.14 mph39%29.73 "HgN/A
6:00 PM76 °FPassing clouds.16 mph37%29.73 "Hg12 mi
5:00 PM78 °FPleasantly warm.15 mph36%29.72 "HgN/A
4:00 PM84 °FPleasantly warm.13 mph23%29.72 "HgN/A
3:00 PM81 °FPartly sunny.12 mph37%29.74 "Hg9 mi
2:00 PM80 °FWarm.12 mph40%29.75 "HgN/A
1:00 PM80 °FWarm.9 mph42%29.76 "HgN/A
12:00 PM78 °FPassing clouds.8 mph43%29.78 "Hg12 mi
11:00 AM74 °FMild.8 mph50%29.81 "HgN/A
10:00 AM71 °FMild.7 mph57%29.84 "HgN/A
9:00 AM69 °FOvercast.6 mph59%29.85 "Hg12 mi
7:00 AM62 °FCool.6 mph71%29.88 "HgN/A
5:00 AM56 °FCool.3 mph78%29.89 "HgN/A
4:00 AM56 °FCool.6 mph83%29.89 "HgN/A
Weather by CustomWeather, © 2015

See weather overviewHow to use our weather pages